Weather History for Black River Falls, WI

Change the Weather History Date:

Saturday, August 31, 2013

  Actual Average (KLSE) Record (KLSE)
Temperature  
Mean Temperature 72 °F 69 °F  
Max Temperature 88 °F 79 °F 95 °F (1953)
Min Temperature 57 °F 59 °F 42 °F (1967)
Degree Days  
Heating Degree Days 0 1  
Month to date heating degree days 11  
Since 1 July heating degree days 20  
Cooling Degree Days 8 5  
Month to date cooling degree days 213  
Year to date cooling degree days 700  
Growing Degree Days 22 (Base 50)    
Moisture  
Dew Point 61 °F    
Average Humidity 74    
Maximum Humidity 100    
Minimum Humidity 30    
Precipitation  
Precipitation 0.00 in 0.14 in 2.78 in (1875)
Month to date precipitation 4.29  
Year to date precipitation 23.96  
Snow  
Snow 0.00 in 0.00 in 0.00 in (2002)
Month to date snowfall 0.0  
Since 1 July snowfall 0.0  
Snow Depth -    
Sea Level Pressure  
Sea Level Pressure 29.85 in    
Wind  
Wind Speed 3 mph (ESE)    
Max Wind Speed 7 mph    
Max Gust Speed -    
Visibility 9 miles    
Events      
T = Trace of Precipitation, MM = Missing Value Source: NWS Daily Summary

Daily Weather History Graph

Daily Weather History Graph

Search for Another Location

Airport:

Trip Planner

Search our weather history database for the weather conditions in past years. The results will help you decide how hot, cold, wet, or windy it might be!

Date:

Astronomy

Aug. 31, 2013 Rise Set
Actual Time 6:25 AM CDT 7:40 PM CDT
Civil Twilight 5:55 AM CDT 8:10 PM CDT
Nautical Twilight 5:19 AM CDT 8:46 PM CDT
Astronomical Twilight 4:41 AM CDT 9:24 PM CDT
Moon 1:48 AM CDT (8/31) 4:45 PM CDT (8/31)
Length of Visible Light 14h 15m
Length of Day
13h 15m
Waning Crescent, 21% of the Moon is Illuminated
Aug 31
Waning Crescent
Sep 5
New
Sep 12
First Quarter
Sep 19
Full
Sep 26
Last Quarter

Hourly Weather History & Observations

Time (CDT) Temp. Heat Index Dew Point Humidity Pressure Visibility Wind Dir Wind Speed Gust Speed Precip Events Conditions
12:15 AM 68.0 °F - 62.6 °F 83% 29.88 in 10.0 mi ENE 5.8 mph - N/A   Clear
12:35 AM 67.5 °F - 62.8 °F 85% 29.89 in 10.0 mi Calm Calm - N/A   Clear
12:55 AM 67.3 °F - 62.4 °F 84% 29.90 in 10.0 mi ENE 5.8 mph - N/A   Mostly Cloudy
1:15 AM 66.4 °F - 62.2 °F 86% 29.90 in 10.0 mi NE 3.5 mph - N/A   Mostly Cloudy
1:35 AM 65.3 °F - 63.5 °F 94% 29.89 in 10.0 mi NE 3.5 mph - N/A   Scattered Clouds
1:55 AM 63.3 °F - 62.2 °F 96% 29.88 in 10.0 mi ENE 3.5 mph - N/A   Clear
2:15 AM 60.8 °F - 60.8 °F 100% 29.88 in 10.0 mi Calm Calm - N/A   Clear
2:35 AM 60.8 °F - 60.8 °F 100% 29.88 in 10.0 mi Calm Calm - N/A   Clear
2:55 AM 60.8 °F - 60.8 °F 100% 29.89 in 10.0 mi Calm Calm - N/A   Clear
3:15 AM 58.1 °F - 58.1 °F 100% 29.91 in 7.0 mi Calm Calm - N/A   Clear
3:35 AM 58.6 °F - 58.6 °F 100% 29.91 in 0.8 mi Calm Calm - N/A   Mist
3:55 AM 57.7 °F - 57.7 °F 100% 29.91 in 10.0 mi NE 3.5 mph - N/A   Clear
4:15 AM 58.1 °F - 58.1 °F 100% 29.91 in 10.0 mi NNE 3.5 mph - N/A   Scattered Clouds
4:35 AM 59.0 °F - 59.0 °F 100% 29.90 in 10.0 mi Calm Calm - N/A   Mostly Cloudy
4:55 AM 58.5 °F - 58.5 °F 100% 29.89 in 7.0 mi NNE 3.5 mph - N/A   Scattered Clouds
5:15 AM 58.8 °F - 58.8 °F 100% 29.89 in 3.0 mi Calm Calm - N/A   Clear
5:35 AM 57.6 °F - 57.6 °F 100% 29.88 in 4.0 mi Calm Calm - N/A   Clear
5:55 AM 57.4 °F - 57.4 °F 100% 29.88 in 2.0 mi Calm Calm - N/A   Clear
6:15 AM 57.6 °F - 57.6 °F 100% 29.89 in 7.0 mi NE 3.5 mph - N/A   Clear
6:35 AM 58.1 °F - 58.1 °F 100% 29.89 in 4.0 mi Calm Calm - N/A   Clear
6:55 AM 57.4 °F - 57.4 °F 100% 29.89 in 7.0 mi Calm Calm - N/A   Clear
7:15 AM 58.8 °F - 58.8 °F 100% 29.89 in 4.0 mi Calm Calm - N/A   Clear
7:35 AM 60.8 °F - 60.8 °F 100% 29.88 in 10.0 mi Calm Calm - N/A   Clear
7:55 AM 62.1 °F - 62.1 °F 100% 29.90 in 10.0 mi NNE 3.5 mph - N/A   Clear
8:15 AM 63.7 °F - 62.4 °F 96% 29.89 in 10.0 mi Calm Calm - N/A   Clear
8:35 AM 65.3 °F - 62.6 °F 91% 29.90 in 10.0 mi Calm Calm - N/A   Scattered Clouds
8:55 AM 67.3 °F - 62.8 °F 85% 29.91 in 10.0 mi Calm Calm - N/A   Clear
9:15 AM 69.1 °F - 61.0 °F 75% 29.91 in 10.0 mi SE 4.6 mph - N/A   Mostly Cloudy
9:35 AM 68.7 °F - 60.6 °F 75% 29.91 in 10.0 mi NE 3.5 mph - N/A   Scattered Clouds
9:55 AM 70.3 °F - 61.0 °F 72% 29.90 in 10.0 mi ESE 3.5 mph - N/A   Clear
10:15 AM 72.9 °F - 61.2 °F 67% 29.89 in 10.0 mi ESE 5.8 mph - N/A   Clear
10:35 AM 73.6 °F - 60.8 °F 64% 29.88 in 10.0 mi SE 5.8 mph - N/A   Clear
10:55 AM 75.2 °F - 60.8 °F 61% 29.87 in 10.0 mi SSE 4.6 mph - N/A   Clear
11:15 AM 75.4 °F - 60.8 °F 60% 29.88 in 10.0 mi Calm Calm - N/A   Clear
11:35 AM 77.2 °F - 60.8 °F 57% 29.88 in 10.0 mi North 4.6 mph - N/A   Clear
11:55 AM 77.7 °F - 60.6 °F 55% 29.87 in 10.0 mi Calm Calm - N/A   Clear
12:15 PM 79.2 °F - 60.8 °F 53% 29.87 in 10.0 mi Calm Calm - N/A   Mostly Cloudy
12:35 PM 81.3 °F 82.1 °F 60.8 °F 50% 29.86 in 10.0 mi East 6.9 mph - N/A   Mostly Cloudy
12:55 PM 80.2 °F 81.0 °F 60.3 °F 50% 29.85 in 10.0 mi SE 3.5 mph - N/A   Scattered Clouds
1:15 PM 80.8 °F 81.4 °F 60.1 °F 49% 29.84 in 10.0 mi SSW 3.5 mph - N/A   Clear
1:35 PM 82.2 °F 82.4 °F 59.7 °F 46% 29.84 in 10.0 mi ENE 3.5 mph - N/A   Clear
1:55 PM 83.5 °F 83.6 °F 59.9 °F 45% 29.84 in 10.0 mi Calm Calm - N/A   Clear
2:15 PM 84.9 °F 84.4 °F 58.5 °F 41% 29.83 in 10.0 mi Calm Calm - N/A   Clear
2:35 PM 86.2 °F 85.0 °F 57.0 °F 37% 29.83 in 10.0 mi SSE 5.8 mph - N/A   Clear
2:55 PM 85.8 °F 84.8 °F 57.2 °F 38% 29.82 in 10.0 mi Calm Calm - N/A   Clear
3:15 PM 87.3 °F 86.1 °F 57.6 °F 36% 29.82 in 10.0 mi South 4.6 mph - N/A   Clear
3:35 PM 86.7 °F 85.3 °F 55.8 °F 35% 29.81 in 10.0 mi Calm Calm - N/A   Clear
3:55 PM 88.3 °F 86.1 °F 53.2 °F 30% 29.81 in 10.0 mi ESE 4.6 mph - N/A   Clear
4:15 PM 87.4 °F 85.3 °F 53.1 °F 31% 29.81 in 10.0 mi SW 3.5 mph - N/A   Clear
4:35 PM 88.0 °F 85.9 °F 53.8 °F 31% 29.81 in 10.0 mi NE 3.5 mph - N/A   Clear
4:55 PM 88.2 °F 86.1 °F 54.1 °F 31% 29.80 in 10.0 mi SSE 3.5 mph - N/A   Clear
5:15 PM 87.4 °F 86.5 °F 58.1 °F 37% 29.79 in 10.0 mi West 3.5 mph - N/A   Clear
5:35 PM 86.9 °F 86.3 °F 59.4 °F 39% 29.79 in 10.0 mi SW 5.8 mph - N/A   Clear
5:55 PM 86.0 °F 86.1 °F 60.8 °F 43% 29.78 in 10.0 mi WSW 5.8 mph - N/A   Clear
6:15 PM 85.5 °F 85.9 °F 61.9 °F 45% 29.77 in 10.0 mi SW 6.9 mph - N/A   Clear
6:35 PM 83.5 °F 84.5 °F 63.0 °F 50% 29.77 in 10.0 mi WSW 6.9 mph - N/A   Clear
6:55 PM 81.9 °F 83.2 °F 63.7 °F 54% 29.78 in 10.0 mi WSW 4.6 mph - N/A   Clear
7:15 PM 79.3 °F - 64.0 °F 59% 29.81 in 10.0 mi West 5.8 mph - N/A   Clear
7:35 PM 77.2 °F - 64.4 °F 65% 29.81 in 10.0 mi Calm Calm - N/A   Clear
7:55 PM 73.8 °F - 63.5 °F 70% 29.81 in 10.0 mi Calm Calm - N/A   Clear
8:15 PM 71.2 °F - 62.4 °F 74% 29.82 in 10.0 mi Calm Calm - N/A   Clear
8:35 PM 69.4 °F - 62.8 °F 79% 29.82 in 10.0 mi Calm Calm - N/A   Clear
8:55 PM 69.6 °F - 63.9 °F 82% 29.84 in 10.0 mi Calm Calm - N/A   Clear
9:15 PM 68.0 °F - 63.5 °F 85% 29.84 in 10.0 mi Calm Calm - N/A   Clear
9:35 PM 67.1 °F - 65.3 °F 94% 29.84 in 10.0 mi Calm Calm - N/A   Clear
9:55 PM 66.2 °F - 63.7 °F 92% 29.84 in 10.0 mi Calm Calm - N/A   Clear
10:15 PM 66.6 °F - 64.8 °F 94% 29.84 in - Calm Calm - N/A   Unknown
10:35 PM 65.8 °F - 64.9 °F 97% 29.83 in 10.0 mi SSE 3.5 mph - N/A   Clear
10:55 PM 66.0 °F - 65.3 °F 98% 29.81 in 10.0 mi Calm Calm - N/A   Clear
11:15 PM 66.2 °F - 65.7 °F 98% 29.81 in 10.0 mi Calm Calm - N/A   Clear
11:35 PM 67.3 °F - 66.2 °F 96% 29.79 in 10.0 mi Calm Calm - N/A   Clear
11:55 PM 68.9 °F - 67.3 °F 95% 29.77 in 10.0 mi SSE 4.6 mph - N/A   Clear